Humidity-temperature Sensor

Selected Measurement Type: Air Temperature

 
Air Temperature [°C]     6 entries per hour
Showing data from 11/26/2014 (00:00:00 Z) to 11/19/2014 (00:01:00 Z)
Previous Next [ Day | 3-Days | 7-Days ]
First Last
Prev [ Day | 3-Days | 7-Days ] Next
First Last

Start Time:     :
End Time:     :     
Time (in GMT) :00 :50 :40 :30 :20 :10
Previous Next [ Day | 3-Days | 7-Days ]
First Last
Prev [ Day | 3-Days | 7-Days ] Next
First Last


123 => good data
MM => data is determined as missing
-- => data not received/configured
Back to Top Back to Top
11/26/2014 00:00 to 23:10 22.31 22.37 22.35 22.33 22.48 22.27
11/25/2014 23:00 to 22:10 22.33 22.38 22.52 22.46 22.50 22.43
11/25/2014 22:00 to 21:10 22.40 22.43 22.50 22.55 22.57 22.57
11/25/2014 21:00 to 20:10 22.56 22.53 22.54 22.43 22.43 22.36
11/25/2014 20:00 to 19:10 22.46 22.47 22.45 22.50 22.39 22.41
11/25/2014 19:00 to 18:10 22.38 22.35 22.34 22.40 22.37 22.26
11/25/2014 18:00 to 17:10 22.35 22.21 22.26 22.15 22.26 22.17
11/25/2014 17:00 to 16:10 22.09 22.18 22.06 22.17 22.10 22.06
11/25/2014 16:00 to 15:10 22.15 22.12 22.10 22.26 22.15 22.32
11/25/2014 15:00 to 14:10 22.28 22.31 22.34 22.30 22.30 22.06
11/25/2014 14:00 to 13:10 22.42 21.75 21.65 21.99 21.96 21.94
11/25/2014 13:00 to 12:10 21.94 21.87 21.71 21.54 21.58 21.58
11/25/2014 12:00 to 11:10 21.45 21.42 21.44 21.48 21.44 21.57
11/25/2014 11:00 to 10:10 21.50 21.43 21.48 21.36 21.35 21.41
11/25/2014 10:00 to 9:10 21.38 21.48 21.41 21.41 21.49 21.42
11/25/2014 09:00 to 8:10 21.40 21.54 21.56 21.53 21.58 21.57
11/25/2014 08:00 to 7:10 21.60 21.64 21.68 21.61 21.61 21.60
11/25/2014 07:00 to 6:10 21.56 21.54 21.51 21.61 21.62 21.58
11/25/2014 06:00 to 5:10 21.60 21.59 21.61 21.71 21.68 21.67
11/25/2014 05:00 to 4:10 21.71 21.68 21.75 21.70 21.71 21.78
11/25/2014 04:00 to 3:10 21.70 21.75 21.71 21.72 21.65 21.69
11/25/2014 03:00 to 2:10 21.74 21.73 21.69 21.73 21.72 21.76
11/25/2014 02:00 to 1:10 21.77 21.73 21.75 21.80 21.76 21.80
11/25/2014 01:00 to 0:10 21.83 21.81 21.80 21.77 21.76 21.75
11/25/2014 00:00 to 23:10 21.87 22.03 22.22 22.21 22.24 22.26
11/24/2014 23:00 to 22:10 22.45 22.31 22.37 22.50 22.35 22.50
11/24/2014 22:00 to 21:10 22.50 22.35 22.43 22.44 22.22 22.29
11/24/2014 21:00 to 20:10 22.39 22.27 22.42 22.36 22.35 22.31
11/24/2014 20:00 to 19:10 22.36 22.40 22.31 22.30 22.23 22.26
11/24/2014 19:00 to 18:10 22.23 22.32 22.19 22.22 22.17 22.21
11/24/2014 18:00 to 17:10 22.12 22.09 22.12 22.00 22.08 21.95
11/24/2014 17:00 to 16:10 22.04 22.11 22.14 22.06 22.05 22.12
11/24/2014 16:00 to 15:10 22.12 22.09 22.09 22.06 21.78 21.85
11/24/2014 15:00 to 14:10 21.78 21.80 21.78 21.82 21.76 21.68
11/24/2014 14:00 to 13:10 21.68 21.71 21.66 21.71 21.65 21.65
11/24/2014 13:00 to 12:10 21.61 21.54 21.65 21.49 21.56 21.51
11/24/2014 12:00 to 11:10 21.57 21.57 21.37 21.37 21.43 21.36
11/24/2014 11:00 to 10:10 21.41 21.39 21.40 21.40 21.29 21.36
11/24/2014 10:00 to 9:10 21.38 21.43 21.36 21.36 21.36 21.42
11/24/2014 09:00 to 8:10 21.39 21.36 21.35 21.37 21.40 21.40
11/24/2014 08:00 to 7:10 21.30 21.36 21.37 21.42 21.49 21.45
11/24/2014 07:00 to 6:10 21.52 21.52 21.52 21.52 21.51 21.60
11/24/2014 06:00 to 5:10 21.55 21.56 21.55 21.55 21.57 21.65
11/24/2014 05:00 to 4:10 21.60 21.66 21.65 21.67 21.66 21.69
11/24/2014 04:00 to 3:10 21.74 21.68 21.77 21.78 21.74 21.79
11/24/2014 03:00 to 2:10 21.71 21.74 21.80 21.74 21.82 21.74
11/24/2014 02:00 to 1:10 21.80 21.83 21.78 21.81 21.79 21.90
11/24/2014 01:00 to 0:10 21.79 21.88 21.87 21.94 21.85 21.86
11/24/2014 00:00 to 23:10 21.92 21.97 22.07 22.23 22.20 22.13
11/23/2014 23:00 to 22:10 22.25 22.25 22.23 22.22 22.32 22.15
11/23/2014 22:00 to 21:10 22.33 22.24 22.25 22.28 22.25 22.33
11/23/2014 21:00 to 20:10 22.28 22.18 22.21 22.19 22.21 22.21
11/23/2014 20:00 to 19:10 22.24 22.16 22.16 22.19 22.19 22.16
11/23/2014 19:00 to 18:10 22.28 22.22 22.13 22.09 22.22 22.19
11/23/2014 18:00 to 17:10 22.12 22.16 22.15 22.00 22.10 22.11
11/23/2014 17:00 to 16:10 22.05 22.04 22.01 22.01 22.10 22.08
11/23/2014 16:00 to 15:10 22.12 22.19 22.28 22.10 22.19 22.19
11/23/2014 15:00 to 14:10 22.08 21.89 21.92 21.97 21.83 21.94
11/23/2014 14:00 to 13:10 21.87 21.80 21.82 22.12 22.16 22.10
11/23/2014 13:00 to 12:10 22.02 21.89 21.67 21.67 21.61 21.62
11/23/2014 12:00 to 11:10 21.48 21.51 21.56 21.45 21.37 21.41
11/23/2014 11:00 to 10:10 21.33 21.23 21.38 21.07 21.02 21.21
11/23/2014 10:00 to 9:10 21.50 21.42 21.53 21.49 21.47 21.49
11/23/2014 09:00 to 8:10 21.53 21.56 21.54 21.62 21.68 21.64
11/23/2014 08:00 to 7:10 21.62 21.64 21.62 21.67 21.64 21.70
11/23/2014 07:00 to 6:10 21.73 21.74 21.60 21.72 21.77 21.79
11/23/2014 06:00 to 5:10 21.87 21.78 21.83 21.82 21.86 21.89
11/23/2014 05:00 to 4:10 21.95 21.98 21.92 21.94 22.01 21.99
11/23/2014 04:00 to 3:10 22.04 22.01 22.05 22.00 22.00 22.05
11/23/2014 03:00 to 2:10 22.05 22.04 22.05 22.21 22.09 22.06
11/23/2014 02:00 to 1:10 22.11 22.16 22.02 22.01 22.12 22.07
11/23/2014 01:00 to 0:10 22.05 22.06 22.13 22.05 22.09 22.08
11/23/2014 00:00 to 23:10 22.09 22.30 22.40 22.47 22.48 22.53
11/22/2014 23:00 to 22:10 22.43 22.47 22.44 22.54 22.48 22.40
11/22/2014 22:00 to 21:10 22.45 22.36 22.51 22.40 22.43 22.37
11/22/2014 21:00 to 20:10 22.44 22.46 22.37 22.28 22.32 22.34
11/22/2014 20:00 to 19:10 22.31 22.30 22.36 22.37 22.29 22.30
11/22/2014 19:00 to 18:10 22.26 22.30 22.26 22.29 22.27 22.41
11/22/2014 18:00 to 17:10 22.38 22.30 22.33 22.30 22.39 22.39
11/22/2014 17:00 to 16:10 22.31 22.40 22.41 22.47 22.44 22.40
11/22/2014 16:00 to 15:10 22.44 22.37 22.49 22.47 22.42 22.53
11/22/2014 15:00 to 14:10 22.55 22.46 22.13 22.17 22.12 22.15
11/22/2014 14:00 to 13:10 22.58 22.55 22.46 22.47 22.21 22.43
11/22/2014 13:00 to 12:10 22.49 22.37 22.19 22.10 21.95 21.97
11/22/2014 12:00 to 11:10 22.01 21.85 22.01 22.01 21.88 21.94
11/22/2014 11:00 to 10:10 21.91 21.86 21.92 21.91 22.07 21.93
11/22/2014 10:00 to 9:10 21.91 21.92 21.98 22.03 22.02 21.97
11/22/2014 09:00 to 8:10 22.04 22.02 21.97 22.09 22.04 21.99
11/22/2014 08:00 to 7:10 22.15 22.12 22.13 22.03 22.05 22.17
11/22/2014 07:00 to 6:10 22.21 22.28 22.20 22.27 22.12 22.27
11/22/2014 06:00 to 5:10 22.33 22.26 22.28 22.36 22.24 22.32
11/22/2014 05:00 to 4:10 22.32 22.27 22.25 22.30 22.21 22.35
11/22/2014 04:00 to 3:10 22.36 22.35 22.46 22.33 22.42 22.52
11/22/2014 03:00 to 2:10 22.43 22.48 22.54 22.57 22.50 22.55
11/22/2014 02:00 to 1:10 22.57 22.47 22.57 22.54 22.64 22.56
11/22/2014 01:00 to 0:10 22.52 22.58 22.60 22.59 22.60 22.54
11/22/2014 00:00 to 23:10 22.60 22.76 22.71 22.97 22.96 22.92
11/21/2014 23:00 to 22:10 23.09 22.80 23.13 23.08 23.13 23.03
11/21/2014 22:00 to 21:10 23.09 23.01 23.09 22.83 22.82 22.91
11/21/2014 21:00 to 20:10 23.02 22.80 22.89 22.94 22.83 22.89
11/21/2014 20:00 to 19:10 22.76 22.73 22.90 22.81 22.75 22.77
11/21/2014 19:00 to 18:10 22.74 22.77 22.81 22.80 22.83 22.85
11/21/2014 18:00 to 17:10 23.00 22.80 22.96 22.89 22.88 22.90
11/21/2014 17:00 to 16:10 22.87 22.92 22.83 22.88 23.09 22.95
11/21/2014 16:00 to 15:10 23.03 23.05 22.94 22.89 22.86 22.84
11/21/2014 15:00 to 14:10 22.87 22.84 22.92 23.04 22.92 22.93
11/21/2014 14:00 to 13:10 22.80 22.75 22.75 22.75 22.69 22.69
11/21/2014 13:00 to 12:10 22.67 22.69 22.62 22.71 22.56 22.63
11/21/2014 12:00 to 11:10 22.48 22.42 22.47 22.54 22.51 22.53
11/21/2014 11:00 to 10:10 22.51 22.64 22.56 22.53 22.59 22.58
11/21/2014 10:00 to 9:10 22.52 22.51 22.46 22.61 22.57 22.67
11/21/2014 09:00 to 8:10 -- -- -- -- -- --
11/21/2014 08:00 to 7:10 22.62 22.56 22.64 22.70 22.62 22.64
11/21/2014 07:00 to 6:10 22.67 22.62 22.77 22.79 22.68 22.86
11/21/2014 06:00 to 5:10 22.85 22.78 22.82 22.84 22.77 22.85
11/21/2014 05:00 to 4:10 22.83 22.88 22.85 22.80 22.86 22.85
11/21/2014 04:00 to 3:10 22.89 22.88 22.94 22.94 22.86 22.92
11/21/2014 03:00 to 2:10 22.92 22.95 22.88 22.92 22.94 22.84
11/21/2014 02:00 to 1:10 22.88 22.93 22.84 22.76 22.64 22.90
11/21/2014 01:00 to 0:10 22.86 22.77 22.79 22.66 22.73 22.64
11/21/2014 00:00 to 23:10 22.45 22.14 22.93 22.94 23.01 22.98
11/20/2014 23:00 to 22:10 23.07 23.12 23.15 23.36 23.30 23.33
11/20/2014 22:00 to 21:10 23.33 23.30 23.21 23.09 23.03 23.14
11/20/2014 21:00 to 20:10 23.07 22.98 22.98 23.02 22.98 22.97
11/20/2014 20:00 to 19:10 22.94 22.90 23.04 22.89 22.89 22.98
11/20/2014 19:00 to 18:10 22.93 22.93 22.87 22.85 22.80 22.99
11/20/2014 18:00 to 17:10 22.97 22.92 22.87 22.87 23.07 23.14
11/20/2014 17:00 to 16:10 23.09 23.06 23.01 22.97 22.97 22.94
11/20/2014 16:00 to 15:10 22.91 23.01 22.91 22.83 22.95 22.95
11/20/2014 15:00 to 14:10 22.60 22.84 22.79 22.81 22.76 22.89
11/20/2014 14:00 to 13:10 22.79 22.75 22.73 22.64 22.69 22.63
11/20/2014 13:00 to 12:10 22.62 22.60 22.64 22.67 22.58 22.56
11/20/2014 12:00 to 11:10 22.65 22.79 21.98 21.97 21.67 21.81
11/20/2014 11:00 to 10:10 22.22 22.14 21.55 21.73 21.71 22.10
11/20/2014 10:00 to 9:10 22.44 22.26 22.54 22.43 22.38 22.56
11/20/2014 09:00 to 8:10 22.63 22.67 22.49 22.45 22.53 22.52
11/20/2014 08:00 to 7:10 22.47 22.53 22.47 22.52 22.51 22.56
11/20/2014 07:00 to 6:10 22.58 22.60 22.71 22.59 22.80 22.69
11/20/2014 06:00 to 5:10 22.61 22.62 22.59 22.64 22.61 22.77
11/20/2014 05:00 to 4:10 22.72 22.77 22.72 22.73 22.71 22.76
11/20/2014 04:00 to 3:10 22.72 22.67 22.69 22.67 22.65 22.67
11/20/2014 03:00 to 2:10 22.81 22.77 22.72 22.69 22.82 22.76
11/20/2014 02:00 to 1:10 22.74 22.70 22.68 22.74 22.68 22.68
11/20/2014 01:00 to 0:10 22.56 22.64 22.73 22.63 22.68 22.66
11/20/2014 00:00 to 23:10 22.73 22.77 22.67 22.71 22.61 22.82
11/19/2014 23:00 to 22:10 22.75 23.08 22.79 22.91 23.02 22.89
11/19/2014 22:00 to 21:10 22.92 22.80 22.95 22.89 22.60 22.79
11/19/2014 21:00 to 20:10 22.96 22.99 22.93 22.91 22.80 22.74
11/19/2014 20:00 to 19:10 22.84 22.84 22.88 22.81 22.71 22.89
11/19/2014 19:00 to 18:10 22.90 23.02 22.90 22.99 22.85 22.95
11/19/2014 18:00 to 17:10 22.92 22.76 22.80 22.78 22.77 22.95
11/19/2014 17:00 to 16:10 22.95 22.93 22.82 23.03 22.99 23.00
11/19/2014 16:00 to 15:10 22.95 22.83 22.99 23.08 23.00 22.75
11/19/2014 15:00 to 14:10 22.94 22.83 23.12 22.84 22.90 23.11
11/19/2014 14:00 to 13:10 22.72 22.80 22.53 22.39 22.51 22.40
11/19/2014 13:00 to 12:10 22.44 22.54 22.56 22.45 22.29 22.14
11/19/2014 12:00 to 11:10 22.13 22.13 22.13 22.15 22.07 22.12
11/19/2014 11:00 to 10:10 22.01 22.05 22.08 22.08 22.05 22.06
11/19/2014 10:00 to 9:10 22.05 22.08 22.08 22.17 22.16 22.05
11/19/2014 09:00 to 8:10 22.14 22.23 22.12 22.01 22.09 22.08
11/19/2014 08:00 to 7:10 22.18 22.14 22.24 22.20 22.24 22.33
11/19/2014 07:00 to 6:10 22.35 22.27 22.22 22.34 22.40 22.39
11/19/2014 06:00 to 5:10 22.47 22.40 22.43 22.47 22.54 22.58
11/19/2014 05:00 to 4:10 22.62 22.50 22.45 22.56 22.61 22.57
11/19/2014 04:00 to 3:10 22.58 22.57 22.58 22.52 22.51 22.50
11/19/2014 03:00 to 2:10 22.52 22.58 22.65 22.51 22.59 22.47
11/19/2014 02:00 to 1:10 22.55 22.54 22.53 22.55 22.60 22.53
11/19/2014 01:00 to 0:10 22.49 22.52 22.67 22.54 22.49 22.54